Location: Altenk�nsberg
(49.8624°N, 11.6540°E)
Time: 01:11:37
(UTC+00:00)

Daily predictions for brighter satellites

Satellite Brightness Start Highest point End
(mag) Time Altitude Azimuth Time Altitude Azimuth Time Altitude Azimuth
Cosmos 1943 Rocket 4.4 01:56:19 20° ENE 01:56:19 20° ENE 01:58:46 10° E
ATLAS 2AS CENTAUR R/B 4.3 01:59:42 30° NNW 02:00:09 30° N 02:06:45 10° NE
ATLAS CENTAUR R/B 4.5 02:16:07 14° ENE 02:16:07 14° ENE 02:16:51 10° ENE
SL-16 R/B 3.8 02:19:42 30° E 02:19:42 30° E 02:23:24 10° NE
ADEOS II 4.4 02:19:42 10° N 02:20:47 16° N 02:20:47 16° N
Cosmos 2369 Rocket 3.9 02:24:49 26° NNE 02:26:26 30° NE 02:31:26 10° ESE
IDEFIX/ARIANE 42P 4.3 02:22:00 10° NNE 02:24:45 29° NE 02:24:45 29° NE
Cosmos 2333 Rocket 3.9 02:55:44 23° N 02:55:44 23° N 02:58:28 10° NNE
USA 215 3.2 02:47:53 10° ENE 02:54:03 76° NNE 02:54:03 76° NNE
ADEOS 4.4 02:53:50 10° NNE 02:58:53 47° E 02:58:57 47° ESE
Meteor 2-10 Rocket 3.7 03:16:51 67° NE 03:16:51 67° NE 03:21:26 10° NNE
Cosmos 1934 Rocket 4.3 03:10:25 10° NNW 03:15:16 55° NNW 03:15:16 55° NNW
Cosmos 2237 Rocket 3.2 03:19:53 36° NNW 03:19:53 36° NNW 03:23:44 10° NNE
NOSS 3-1 (A) 4.2 03:19:35 52° SSW 03:19:35 52° SSW 03:26:43 10° SSE
CZ-4C R/B 2.9 03:21:54 43° NNW 03:21:54 43° NNW 03:27:33 10° NE
Cosmos 2221 4.4 03:19:42 14° SE 03:22:40 29° E 03:26:23 10° NNE
Cosmos 2219 Rocket 3.9 03:26:42 20° NNW 03:26:42 20° NNW 03:29:47 10° N
USA 267 4.4 03:23:34 10° SSE 03:26:50 27° S 03:26:50 27° S
Cosmos 1943 Rocket 2.0 03:37:56 63° NW 03:38:52 83° WSW 03:44:22 10° SSE
Cosmos 2360 Rocket 4.4 03:39:41 11° NNW 03:40:02 11° NNW 03:41:33 10° N
Meteor 1-31 Rocket 3.8 03:36:50 10° NNE 03:40:30 43° E 03:41:21 36° SE
Cosmos 1605 Rocket 3.8 03:36:32 10° NNW 03:42:47 75° W 03:48:53 10° S
Lacrosse 5 2.3 03:45:18 48° S 03:45:18 48° S 03:49:18 10° SE
NOSS 2-1 (C) 4.3 03:46:03 37° NNE 03:46:03 37° NNE 03:48:40 10° NE
CZ-4B R/B 4.0 03:43:00 10° NNE 03:46:29 38° E 03:48:09 24° SSE
NOSS 2-1 (D) 4.2 03:50:02 38° NNE 03:50:02 38° NNE 03:52:45 10° NE
ATLAS CENTAUR R/B 2.2 03:52:19 43° NNW 03:52:19 43° NNW 03:55:56 10° NNE
COSMOS 2428 4.5 03:52:41 17° NNW 03:52:41 17° NNW 03:56:16 10° N
STARLINK-1190 4.5 03:53:55 35° NE 03:53:55 35° NE 03:56:13 10° ENE
ATLAS 2AS CENTAUR R/B 4.1 03:47:08 13° NW 03:53:22 36° NNE 04:00:05 10° E
ALOS 3.9 03:51:08 10° NNE 03:55:23 34° E 03:59:37 10° SSE
PAYLOAD A 3.8 03:53:12 10° N 03:58:03 65° WNW 03:58:46 57° WSW
Cosmos 1153 Rocket 4.3 03:52:46 10° N 03:58:57 84° W 04:05:05 10° S
MSX 3.9 03:53:54 10° N 03:59:27 52° WNW 04:00:17 48° W
CZ-2C R/B 2.4 03:54:34 10° N 03:59:46 74° WNW 04:01:40 39° SSW
SL-16 R/B 2.4 04:01:35 47° WNW 04:02:20 49° NW 04:07:51 10° NNE
Cosmos 2251 Rocket 3.7 04:03:08 48° WNW 04:03:29 49° WNW 04:08:40 10° NNE
ADEOS II 4.3 04:01:30 10° NNW 04:01:44 11° NNW 04:01:44 11° NNW
Cosmos 1356 Rocket 4.1 04:06:32 38° NNW 04:06:32 38° NNW 04:09:28 10° N
Cosmos 1869 4.2 04:02:10 10° S 04:06:01 49° E 04:09:51 10° NNE
IDEFIX/ARIANE 42P 3.6 04:01:56 10° N 04:05:34 29° NW 04:05:34 29° NW
Cosmos 1805 Rocket 4.4 04:02:19 10° N 04:06:34 49° ENE 04:10:46 10° SSE
Cosmos 1633 3.4 04:05:45 10° N 04:09:20 52° ENE 04:12:53 10° SSE
BREEZE-M DEB (TANK) 3.3 04:09:15 45° W 04:10:42 70° SSW 04:23:30 10° ESE
Cosmos 2369 Rocket 2.1 04:06:40 18° NW 04:10:53 63° WSW 04:16:30 10° SSE
H-2A R/B 2.6 04:06:38 10° NNE 04:11:03 86° ESE 04:15:05 13° SSW
Meteor PRIRODA 4.2 04:08:04 10° NNE 04:11:44 57° E 04:15:21 10° S
SKYMED 2 3.7 04:07:52 10° SSE 04:12:12 74° ENE 04:16:33 10° N
Spot 2 3.9 04:08:11 10° N 04:12:12 59° WNW 04:12:30 57° W
STARLINK-1118 4.4 04:12:48 26° ESE 04:12:48 26° ESE 04:14:30 10° E
Cosmos 1727 Rocket 3.9 04:07:35 10° S 04:13:47 82° W 04:20:00 10° N
Cosmos 1500 Rocket 3.4 04:09:28 10° NNW 04:13:54 69° W 04:18:15 10° S
STARLINK-1129 3.6 04:16:13 47° N 04:16:21 47° N 04:19:34 10° E
Cosmos 2173 Rocket 4.1 04:10:47 10° N 04:17:08 81° E 04:23:20 10° SSE
STARLINK-1134 3.5 04:18:18 47° N 04:18:32 48° N 04:21:45 10° E
Cosmos 1603 3.8 04:13:19 12° SSW 04:18:43 79° ESE 04:24:26 10° NNE
Cosmos 1656 Rocket 3.8 04:13:54 10° NNW 04:19:36 80° ENE 04:25:19 10° SSE
STARLINK-1135 3.5 04:20:42 46° NNW 04:21:02 48° N 04:24:15 10° E
Cosmos 1943 3.5 04:17:07 10° SSW 04:22:40 67° ESE 04:28:17 10° NNE
STARLINK-1141 3.5 04:22:57 45° NNW 04:23:23 48° N 04:26:36 10° E
Aureole 2 Rocket 3.6 04:25:20 25° S 04:25:20 25° S 04:26:55 10° S
STARLINK-1140 3.5 04:25:13 43° NNW 04:25:44 49° N 04:28:58 10° E
Cosmos 1743 Rocket 3.7 04:22:15 10° NNW 04:26:25 47° W 04:30:34 10° SSW
CZ-4B R/B 4.0 04:22:10 10° N 04:26:27 63° WNW 04:30:00 15° SSW
Cosmos 2263 4.1 04:21:56 10° NW 04:27:34 63° WSW 04:33:07 10° SSE
STARLINK-1156 3.6 04:27:27 42° NNW 04:28:05 49° N 04:31:19 10° E
STARLINK-1149 3.2 04:28:43 46° N 04:28:50 46° N 04:31:32 10° E
Okean O Rocket 3.6 04:25:42 10° NNE 04:29:37 31° E 04:33:29 10° SSE
STARLINK-1148 3.5 04:29:44 40° NW 04:30:27 50° N 04:33:41 10° E
STARLINK-1153 3.3 04:31:49 43° NNW 04:32:15 47° N 04:35:06 10° E
STARLINK-1180 3.3 04:32:00 43° NNW 04:32:27 48° N 04:35:20 10° E
STARLINK-1158 3.5 04:31:58 39° NW 04:32:47 50° N 04:36:03 10° E
STARLINK-1174 3.3 04:32:27 43° NNW 04:32:55 48° N 04:35:46 10° E
STARLINK-1139 3.3 04:32:41 42° NNW 04:33:08 48° N 04:36:00 10° E
STARLINK-1133 3.3 04:32:54 42° NNW 04:33:22 48° N 04:36:14 10° E
STARLINK-1151 3.3 04:33:08 42° NNW 04:33:36 48° N 04:36:28 10° E
Cosmos 2100 Rocket 3.9 04:28:01 10° NNW 04:34:15 74° W 04:40:22 10° S
STARLINK-1160 3.3 04:33:46 42° NNW 04:34:17 48° N 04:37:08 10° E
STARLINK-1161 3.3 04:33:58 42° NNW 04:34:29 48° N 04:37:21 10° E
STARLINK-1145 3.3 04:34:12 41° NNW 04:34:44 48° N 04:37:35 10° E
SJ-12 4.1 04:30:44 10° NNE 04:34:54 76° ESE 04:39:02 10° S
STARLINK-1172 3.3 04:34:24 41° NNW 04:34:56 48° N 04:37:48 10° E
STARLINK-1182 3.3 04:34:50 41° NNW 04:35:24 48° N 04:38:16 10° E
STARLINK-1164 3.3 04:35:03 41° NNW 04:35:37 48° N 04:38:29 10° E
STARLINK-1168 3.3 04:35:16 41° NNW 04:35:50 48° N 04:38:42 10° E
Shenzhou-11 Module 4.1 04:35:31 14° S 04:36:03 14° SSE 04:37:34 10° SE
NOSS 2-1 (E) 4.1 04:35:42 28° NW 04:36:16 30° NNW 04:39:56 10° NNE
STARLINK-1183 3.3 04:35:55 40° NNW 04:36:31 49° N 04:39:23 10° E
STARLINK-1181 3.3 04:36:08 40° NNW 04:36:44 49° N 04:39:36 10° E
USA 215 3.7 04:30:52 10° ENE 04:37:08 50° N 04:41:24 21° WNW
STARLINK-1196 3.3 04:36:47 40° NNW 04:37:25 49° N 04:40:18 10° E
STARLINK-1186 3.3 04:37:12 39° NNW 04:37:52 49° N 04:40:43 10° E
STARLINK-1185 3.3 04:37:26 39° NNW 04:38:05 49° N 04:40:57 10° E
ADEOS 4.4 04:33:42 10° N 04:38:14 31° WNW 04:39:45 26° W
STARLINK-1175 3.3 04:37:39 39° NW 04:38:19 49° N 04:41:11 10° E
STARLINK-1147 3.3 04:37:52 39° NW 04:38:33 49° N 04:41:25 10° E
STARLINK-1146 3.3 04:38:04 38° NW 04:38:45 49° N 04:41:38 10° E
STARLINK-1132 3.1 04:38:24 41° NNW 04:38:59 50° NNE 04:41:44 10° E
STARLINK-1152 3.3 04:38:19 38° NW 04:39:01 49° N 04:41:53 10° E
STARLINK-1195 3.3 04:38:31 38° NW 04:39:13 50° N 04:42:06 10° E
STARLINK-1137 3.3 04:38:44 38° NW 04:39:27 50° N 04:42:19 10° E
STARLINK-1142 3.3 04:38:57 38° NW 04:39:41 50° N 04:42:33 10° E
Cosmos 2333 Rocket 4.3 04:38:09 10° NW 04:39:45 11° NNW 04:41:22 10° N
STARLINK-1127 3.3 04:39:09 38° NW 04:39:54 50° NNE 04:42:45 10° E
STARLINK-1184 3.2 04:39:22 38° NW 04:40:07 50° N 04:42:59 10° E
STARLINK-1193 3.2 04:39:35 37° NW 04:40:21 50° NNE 04:43:13 10° E
Cosmos 1140 Rocket 3.6 04:35:12 10° SSW 04:40:27 79° ESE 04:45:43 10° NNE
STARLINK-1194 3.2 04:39:49 37° NW 04:40:35 50° NNE 04:43:27 10° E
Meteor 2-3 Rocket 4.3 04:35:31 10° NNW 04:40:43 36° W 04:45:55 10° SSW
STARLINK-1150 3.1 04:40:36 39° NW 04:41:16 51° NNE 04:44:01 10° E
Cosmos 407 Rocket 3.4 04:36:38 10° SSW 04:41:57 77° WNW 04:47:16 10° NNE
Cosmos 1862 3.5 04:38:12 10° N 04:42:11 73° ENE 04:46:08 10° SSE
STARLINK-1163 3.1 04:41:50 38° NW 04:42:32 51° NNE 04:45:18 10° E
Cosmos 1842 Rocket 4.1 04:40:30 23° SW 04:42:39 37° WNW 04:46:51 10° N
Cosmos 1000 Rocket 4.4 04:37:18 10° S 04:43:29 87° W 04:49:47 10° N
STARLINK-1177 3.1 04:43:31 37° NW 04:44:18 52° NNE 04:47:03 10° E
STARLINK-1173 3.1 04:43:34 37° NW 04:44:21 52° NNE 04:47:07 10° E
STARLINK-1167 3.1 04:44:01 36° NW 04:44:50 53° NNE 04:47:36 10° E
Cosmos 1459 Rocket 3.9 04:38:45 10° NNW 04:44:52 67° W 04:51:04 10° S
GEOS 3 Rocket 3.6 04:39:34 10° NE 04:44:54 89° NW 04:50:16 10° SW
Cosmos 921 Rocket 3.3 04:41:38 10° NNW 04:45:53 46° WSW 04:50:03 10° S
Cosmos 1484 Rocket 2.9 04:42:29 10° N 04:46:21 54° WNW 04:50:14 10° SSW
BREEZE M DEB (TANK) 3.2 04:45:29 29° W 04:47:08 78° S 04:55:16 10° ESE
STARLINK-1097 4.5 04:45:44 13° SW 04:49:06 46° SE 04:53:02 10° ENE
USA 116 3.0 04:46:34 10° SSE 04:49:41 81° WSW 04:52:49 10° NNW
STARLINK-1136 3.0 04:48:47 32° NW 04:49:46 55° NNE 04:52:31 10° E
Cosmos 2061 Rocket 3.9 04:45:19 10° N 04:51:38 82° W 04:57:51 10° S
Cosmos 1340 4.1 04:48:52 10° N 04:52:27 39° ENE 04:56:00 10° SE
STARLINK-1099 4.4 04:50:25 12° SW 04:53:56 49° SSE 04:57:55 10° ENE
STARLINK-1170 2.8 04:53:19 31° NW 04:54:18 55° NNE 04:56:54 10° E
STARLINK-1070 2.9 04:54:20 24° SW 04:55:55 68° SSE 04:58:51 10° ENE
STARLINK-1124 2.7 04:54:41 26° WSW 04:56:09 78° SSE 04:59:05 10° ENE
STARLINK-1066 2.9 04:54:55 24° SW 04:56:29 68° SSE 04:59:25 10° ENE
STARLINK-1081 2.9 04:55:08 24° SW 04:56:43 69° SSE 04:59:38 10° ENE
STARLINK-1069 2.9 04:55:34 23° SW 04:57:10 69° SSE 05:00:05 10° ENE
STARLINK-1085 2.9 04:55:46 23° SW 04:57:23 69° SSE 05:00:19 10° ENE
STARLINK-1086 2.8 04:56:03 23° SW 04:57:40 70° SSE 05:00:36 10° ENE
Cosmos 1725 Rocket 4.0 04:51:29 10° N 04:57:47 89° E 05:04:05 10° S
STARLINK-1095 2.8 04:56:13 23° SW 04:57:51 70° SSE 05:00:46 10° ENE
STARLINK-1077 2.8 04:56:24 23° SW 04:58:02 70° SSE 05:00:57 10° ENE
STARLINK-1075 2.8 04:56:39 23° SW 04:58:17 70° SSE 05:01:13 10° ENE
STARLINK-1093 2.8 04:56:52 23° SW 04:58:31 71° SSE 05:01:27 10° ENE
STARLINK-1104 4.3 04:55:03 12° SW 04:58:45 52° SSE 05:02:44 10° ENE
STARLINK-1074 2.8 04:57:06 23° SW 04:58:46 71° SSE 05:01:42 10° ENE
STARLINK-1087 2.8 04:57:18 23° SW 04:58:58 71° SSE 05:01:54 10° ENE
STARLINK-1088 2.8 04:57:29 22° SW 04:59:09 71° SSE 05:02:05 10° ENE
STARLINK-1115 2.8 04:57:44 22° SW 04:59:26 72° SSE 05:02:21 10° ENE
STARLINK-1076 2.8 04:57:57 22° SW 04:59:39 72° SSE 05:02:35 10° ENE
STARLINK-1092 2.8 04:58:10 22° SW 04:59:52 72° SSE 05:02:48 10° ENE
STARLINK-1080 2.8 04:58:22 22° SW 05:00:05 72° SSE 05:03:00 10° ENE
Cosmos 2221 3.2 04:56:38 11° SW 05:00:10 31° WNW 05:04:03 10° N
STARLINK-1090 2.8 04:58:36 22° SW 05:00:20 73° SSE 05:03:15 10° ENE
COSMO-SKYMED 1 3.0 04:56:18 10° SSW 05:00:21 38° W 05:04:26 10° NNW
Cosmos 1633 Rocket 3.3 04:55:59 10° N 05:00:22 75° E 05:04:46 10° SSE
STARLINK-1089 2.8 04:58:51 22° WSW 05:00:36 73° SSE 05:03:31 10° ENE
STARLINK-1107 2.8 04:59:03 22° WSW 05:00:46 73° SSE 05:03:43 10° ENE
STARLINK-1109 2.8 04:59:14 21° WSW 05:00:59 73° SSE 05:03:55 10° ENE
STARLINK-1091 2.8 04:59:29 21° WSW 05:01:14 74° SSE 05:04:09 10° ENE
Cosmos 614 Rocket 4.2 04:56:17 10° SW 05:01:16 49° WNW 05:06:22 10° NNE
STARLINK-1072 2.8 04:59:39 21° WSW 05:01:25 74° SSE 05:04:21 10° ENE
STARLINK-1096 2.8 04:59:53 21° WSW 05:01:39 74° SSE 05:04:34 10° ENE
STARLINK-1079 2.8 05:00:06 21° WSW 05:01:53 74° SSE 05:04:48 10° ENE
STARLINK-1116 2.8 05:00:20 21° WSW 05:02:08 75° SSE 05:05:03 10° ENE
STARLINK-1094 2.8 05:00:46 21° WSW 05:02:34 75° SSE 05:05:30 10° ENE
STARLINK-1117 2.7 05:00:58 21° WSW 05:02:47 75° SSE 05:05:43 10° ENE
STARLINK-1078 2.8 05:01:12 21° WSW 05:03:02 76° SSE 05:05:58 10° ENE
STARLINK-1108 2.7 05:01:25 20° WSW 05:03:15 76° SSE 05:06:10 10° ENE
STARLINK-1144 4.2 04:59:25 11° SW 05:03:16 55° SSE 05:07:17 10° ENE
Cosmos 2123 Rocket 4.1 04:57:02 10° S 05:03:21 83° E 05:09:40 10° N
STARLINK-1071 2.7 05:01:37 20° WSW 05:03:27 76° SSE 05:06:22 10° ENE
STARLINK-1110 2.7 05:01:52 20° WSW 05:03:43 77° SSE 05:06:39 10° ENE
Cosmos 1346 Rocket 4.0 05:00:04 10° N 05:03:50 43° ENE 05:07:33 10° SE
Cosmos 1666 Rocket 3.5 04:59:24 10° N 05:03:53 85° W 05:08:17 10° S
Cosmos 2237 Rocket 4.1 05:01:42 11° NW 05:03:59 14° NNW 05:06:46 10° N
METEOR-M 4.1 04:58:46 10° N 05:04:06 69° WNW 05:09:25 10° SSW
STARLINK-1122 2.7 05:02:15 20° WSW 05:04:07 77° SSE 05:07:04 10° ENE
STARLINK-1126 2.7 05:02:29 20° WSW 05:04:21 77° SSE 05:07:16 10° ENE
STARLINK-1082 2.7 05:02:43 20° WSW 05:04:35 78° SSE 05:07:31 10° ENE
STARLINK-1100 2.7 05:02:56 20° WSW 05:04:49 78° SSE 05:07:45 10° ENE
STARLINK-1162 3.2 05:02:49 20° WNW 05:04:53 62° NNE 05:08:06 10° E
STARLINK-1083 2.7 05:03:09 20° WSW 05:05:03 78° SSE 05:07:58 10° ENE
STARLINK-1125 2.7 05:03:20 19° WSW 05:05:15 78° SSE 05:08:11 10° ENE
PSLV R/B 3.9 05:03:11 10° N 05:06:48 48° WNW 05:10:27 10° SW
STARLINK-1157 3.2 05:04:49 19° WNW 05:06:58 64° NNE 05:10:11 10° E
Cosmos 1190 Rocket 4.1 05:01:51 10° SW 05:07:02 57° WNW 05:12:19 10° NNE
PAYLOAD B 4.3 05:01:26 10° NNE 05:07:04 88° ESE 05:12:37 10° SSW
STARLINK-1128 4.0 05:04:01 10° SW 05:07:57 60° SSE 05:11:57 10° ENE
STARLINK-1103 4.1 05:04:24 10° SW 05:08:26 59° SSE 05:12:28 10° ENE
STARLINK-1159 3.2 05:06:59 18° WNW 05:09:14 65° NNE 05:12:27 10° E
COSMOS 2455 4.1 05:04:03 10° NNW 05:09:40 38° NE 05:15:15 10° ESE
NOSS 3-4 (A) 4.4 05:03:47 10° NW 05:10:27 55° NE 05:17:48 10° ESE
NOSS 3-4 (C) 4.4 05:03:53 10° NW 05:10:33 55° NE 05:17:53 10° ESE
Cosmos 1802 Rocket 4.2 05:04:34 10° NNW 05:10:48 54° W 05:17:01 10° SSW
Cosmos 1238 Rocket 3.8 05:04:47 10° NNW 05:10:48 56° W 05:15:54 10° SSW
STARLINK-1171 3.2 05:09:13 17° WNW 05:11:34 66° NNE 05:14:48 10° E
CZ-4C R/B 3.9 05:07:04 11° WNW 05:11:36 25° N 05:17:13 10° NE
STARLINK-1113 3.9 05:08:47 10° SW 05:12:48 63° SSE 05:16:49 10° ENE
STARLINK-1101 4.0 05:09:14 10° SW 05:13:17 63° SSE 05:17:21 10° ENE
STARLINK-1155 3.1 05:11:18 16° WNW 05:13:44 68° NNE 05:16:58 10° E
Meteor 1-31 Rocket 4.1 05:11:52 10° NNW 05:14:39 19° WNW 05:16:45 13° WSW
DMSP B5D1-3 4.5 05:10:52 10° S 05:15:55 65° WSW 05:21:01 10° NNW
STARLINK-1166 3.1 05:13:32 16° WNW 05:16:03 69° NNE 05:19:17 10° ESE
BREEZE-M DEB (TANK) 4.2 05:11:59 10° SW 05:16:04 28° SSE 05:18:18 10° E
Cosmos 468 Rocket 4.2 05:10:43 10° NNW 05:16:05 81° ENE 05:21:22 10° SSE
Cosmos 1864 Rocket 4.4 05:10:35 10° NNW 05:16:40 68° W 05:22:46 10° S
SL-08 R/B 4.4 05:10:43 10° NNW 05:16:49 66° W 05:22:49 10° S
STARLINK-1179 2.5 05:15:26 17° WNW 05:17:21 77° NNE 05:20:01 10° ESE
STARLINK-1119 3.9 05:13:30 10° SW 05:17:31 67° SSE 05:21:34 10° ENE
STARLINK-1176 2.5 05:15:58 17° WNW 05:17:56 78° NNE 05:20:37 10° ESE
STARLINK-1102 3.9 05:14:04 10° SW 05:18:08 67° SSE 05:22:13 10° ENE
STARLINK-1165 3.1 05:15:41 15° WNW 05:18:18 71° NNE 05:21:33 10° ESE
STARLINK-1169 3.1 05:17:50 14° WNW 05:20:32 73° NNE 05:23:48 10° ESE
CZ-4B R/B 4.0 05:18:41 10° NNW 05:21:22 19° WNW 05:24:01 10° WSW
Cosmos 1943 Rocket 3.7 05:19:34 12° WNW 05:21:43 14° W 05:24:33 10° SW
STARLINK-1114 3.8 05:18:03 10° WSW 05:22:06 71° SSE 05:26:09 10° ENE
STARLINK-1178 3.1 05:20:00 13° WNW 05:22:47 74° NNE 05:26:02 10° ESE
STARLINK-1111 3.8 05:18:56 10° SW 05:23:01 71° SSE 05:27:06 10° ENE
Cosmos 676 Rocket 4.0 05:19:27 10° SW 05:24:45 65° WNW 05:30:06 10° NNE
STARLINK-1120 3.0 05:22:04 13° WNW 05:24:57 76° NNE 05:28:12 10° ESE
Lacrosse 5 3.7 05:24:33 10° W 05:26:23 12° WSW 05:28:20 10° SW
STARLINK-1130 (DARKSAT) 3.7 05:22:21 10° WSW 05:26:23 74° SSE 05:30:27 10° ENE
STARLINK-1131 3.0 05:24:16 12° WNW 05:27:14 78° NNE 05:30:30 10° ESE
STARLINK-1073 3.8 05:23:43 10° WSW 05:27:49 75° SSE 05:31:56 10° ENE
STARLINK-1190 3.0 05:26:30 11° WNW 05:29:35 80° NNE 05:32:50 10° ESE
STARLINK-1084 3.7 05:27:25 10° WSW 05:31:29 79° SSE 05:35:33 10° ENE
ATLAS CENTAUR R/B 3.4 05:28:51 10° WNW 05:31:36 16° NNW 05:34:14 10° NNE
STARLINK-1121 3.7 05:28:36 10° WSW 05:32:42 79° SSE 05:36:49 10° ENE
ALOS 2.9 05:28:36 10° N 05:32:48 34° WNW 05:36:59 10° SW
Cosmos 1315 Rocket 3.5 05:29:03 10° S 05:32:56 59° E 05:36:49 10° NNE
Cosmos 2016 Rocket 4.3 05:27:58 10° NNW 05:33:49 43° W 05:39:41 10° SSW
Cosmos 1606 3.3 05:31:18 10° S 05:35:03 62° E 05:38:49 10° NNE
Cosmos 1980 Rocket 4.4 05:32:31 10° N 05:36:36 20° NE 05:40:40 10° E
CZ-2C R/B 4.2 05:34:24 10° NNW 05:37:07 15° NW 05:39:50 10° W
STARLINK-1106 3.7 05:33:36 10° WSW 05:37:43 83° SSE 05:41:50 10° ENE
CZ-2C R/B 4.5 05:34:52 10° SSE 05:39:11 56° ENE 05:43:34 10° N
Cosmos 841 Rocket 4.0 05:36:29 10° NNW 05:41:42 64° ENE 05:46:54 10° SE
Cosmos 1400 Rocket 3.2 05:38:35 10° SW 05:42:26 43° WNW 05:46:22 10° N
FENGYUN 3A 4.3 05:37:39 10° N 05:42:35 36° WNW 05:47:29 10° SW
STARLINK-1112 3.6 05:38:29 10° WSW 05:42:36 87° SSE 05:46:45 10° ENE
NOAA 6 4.1 05:38:01 10° N 05:43:06 56° WNW 05:48:08 10° SW
Cosmos 1633 4.3 05:41:54 10° NW 05:43:43 13° W 05:45:32 10° WSW
Cosmos 1470 Rocket 3.6 05:39:19 10° NNW 05:43:46 72° W 05:48:13 10° S
Sich 1 4.0 05:40:29 10° NNW 05:43:58 25° W 05:47:28 10° SW
ATLAS 2AS CENTAUR R/B 3.1 05:37:40 10° NW 05:45:27 83° NE 05:52:32 10° SE
Cosmos 192 4.4 05:42:16 10° NNW 05:47:06 57° WSW 05:51:53 10° S
Meteor 2-20 4.4 05:41:26 10° SSW 05:47:31 81° W 05:53:38 10° N
ADEOS Rocket 3.5 05:41:46 10° S 05:47:53 50° W 05:54:44 10° NNW
